Probability
0 0 0 0 0 0 0 0 0 0 0 0 0 0 0 0 0 0 0 0 0 0 0 0 0 0 0 0 0 0 0 0 0 0 0 0 0 0 0 0 0 0 0 0
0 0 0 0 0 0 0 0 0 0 0 0 0 0 0 0 0 0 0 0 0 0 0 0 0 0 0 0 0 0 0 0 0 0 0 0 0 0 0 0 0 0 0 0
0 0 0 0 0 0 0 0 0 0 0 0 0 0 0 0 0 0 0 0 0 0 0 0 0 0 0 0 0 0 0 0 0 0 0 0 0 0 0 0 0 0 0 0
0 0 0 0 0 0 0 0 0 0 0 0 0 0 0 0 0 0 0 0 0 0 0 0 0 0 0 0 0 0 0 0 0 0 0 0 0 0 0 0 0 0 0 0
0 0 0 0 0 0 0 0 0 0 0 0 0 0 0 0 0 0 0 0 0 0 0 0 0 0 0 0 0 0 0 0 0 0 0 0 0 0 0 0 0 0 0 0
0 0 0 0 0 0 0 0 0 0 0 0 0 0 0 0 0 0 0 0 0 0 0 0 0 0 0 0 0 0 0 0 0 0 0 0 0 0 0 0 0 0 0 0
0 0 0 0 0 0 0 0 0 0 0 0 0 0 0 0 0 0 0 0 0 0 0 0 0 0 0 0 0 0 0 0 0 0 0 0 0 0 0 0 0 0 0 0
0 0 0 0 0 0 0 0 0 0 0 0 0 0 0 0 0 0 0 0 0 0 0 0 0 0 0 0 0 0 0 0 0 0 0 0 0 0 0 0 0 0 0 0
0 0 0 0 0 0 0 0 0 0 0 0 0 0 0 0 0 0 0 0 0 0 0 0 0 0 0 0 0 0 0 0 0 0 0 0 0 0 0 0 0 0 0 0
0 0 0 0 0 0 0 0 0 0 0 0 0 0 0 0 0 0 0 0 0 0 0 0 0 0 0 0 0 0 0 0 0 0 0 0 0 0 0 0 0 0 0 0
0 0 0 0 0 0 0 0 0 0 0 0 0 0 0 0 0 0 0 0 0 0 0 0 0 0 0 0 0 0 0 0 0 0 0 0 0 0 0 0 0 0 0 0
0 0 0 0 0 0 0 0 0 0 0 0 0 0 0 0 0 0 0 0 0 0 0 0 0 0 0 0 0 0 0 0 0 0 0 0 0 0 0 0 0 0 0 0
0 0 0 0 0 0 0 0 0 0 0 0 0 0 0 0 0 0 0 0 0 0 0 0 0 0 0 0 0 0 0 0 0 0 0 0 0 0 0 0 0 0 0 0
0 0 0 0 0 0 0 0 0 0 0 0 0 0 0 0 0 0 0 0 0 0 0 0 0 0 0 0 0 0 0 0 0 0 0 0 0 0 0 0 0 0 0 0
0 0 0 0 0 0 0 0 0 0 0 0 0 0 0 0 0 0 0 0 0 0 0 0 0 0 0 0 0 0 0 0 0 0 0 0 0 0 0 0 0 0 0 0
0 0 0 0 0 0 0 0 0 0 0 0 0 0 0 0 0 0 0 0 0 0 0 0 0 0 0 0 0 0 0 0 0 0 0 0 0 0 0 0 0 0 0 0
0 0 0 0 0 0 0 0 0 0 0 0 0 0 0 0 0 0 0 0 0 0 0 0 0 0 0 0 0 0 0 0 0 0 0 0 0 0 0 0 0 0 0 0
0 0 0 0 0 0 0 0 0 0 0 0 0 0 0 0 0 0 0 0 0 0 0 0 0 0 0 0 0 0 0 0 0 0 0 0 0 0 0 0 0 0 0 0
0 0 0 0 0 0 0 0 0 0 0 0 0 0 0 0 0 0 0 0 0 0 0 0 0 0 0 0 0 0 0 0 0 0 0 0 0 0 0 0 0 0 0 0
0 0 0 0 0 0 0 0 0 0 0 0 0 0 0 0 0 0 0 0 0 0 0 0 0 0 0 0 0 0 0 0 0 0 0 0 0 0 0 0 0 0 0 0
0 0 0 0 0 0 0 0 0 0 0 0 0 0 0 0 0 0 0 0 0 0 0 0 0 0 0 0 0 0 0 0 0 0 0 0 0 0 0 0 0 0 0 0
0 0 0 0 0 0 0 0 0 0 0 0 0 0 0 0 0 0 0 0 0 0 0 0 0 0 0 0 0 0 0 0 0 0 0 0 0 0 0 0 0 0 0 0
0 0 0 0 0 0 0 0 0 0 0 0 0 0 0 0 0 0 0 0 0 0 0 0 0 0 0 0 0 0 0 0 0 0 0 0 0 0 0 0 0 0 0 0
0 0 0 0 0 0 0 0 0 0 0 0 0 0 0 0 0 0 0 0 0 0 0 0 0 0 0 0 0 0 0 0 0 0 0 0 0 0 0 0 0 0 0 0
0 0 0 0 0 0 0 0 0 0 0 0 0 0 0 0 0 0 0 0 0 0 0 0 0 0 0 0 0 0 0 0 0 0 0 0 0 0 0 0 0 0 0 0
0 0 0 0 0 0 0 0 0 0 0 0 0 0 0 0 0 0 0 0 0 0 0 0 0 0 0 0 0 0 0 0 0 0 0 0 0 0 0 0 0 0 0 0
Wind_Speed
1 3 3 7 7 4 3 3 5 5 2 2 7 12 12 7 5 7 6 6 6 6 5 3 3 3 3 3 4 5 5 4 3 2 2 2 2 2 2 2 2 2 2 2
3 3 5 2 2 2 3 3 4 4 2 2 6 11 10 7 6 7 7 7 7 6 3 3 2 2 3 3 4 4 4 5 4 3 3 2 2 2 2 2 2 2 2 2
5 3 1 2 1 2 3 4 4 3 4 3 4 9 6 4 3 4 4 5 5 6 5 4 3 3 3 3 4 4 4 4 4 3 2 2 2 1 1 1 1 2 2 2
2 2 1 1 2 2 5 3 2 1 2 4 0 6 8 4 4 4 4 4 4 4 4 3 3 3 4 4 4 4 4 4 4 4 4 5 4 3 3 2 2 1 2 2
3 1 1 2 3 3 3 1 1 2 1 3 1 3 10 3 4 6 5 4 3 3 3 4 4 4 3 3 3 3 3 3 3 4 5 5 4 3 2 2 2 1 1 1
2 1 1 2 1 1 1 2 2 2 2 3 4 4 8 4 5 4 4 4 3 2 2 2 2 2 1 1 2 2 3 3 3 4 4 5 5 4 3 2 2 2 1 1
2 2 1 0 1 1 2 4 4 5 3 6 2 3 9 6 5 4 4 5 4 2 2 2 2 3 3 3 2 2 3 2 2 3 4 4 5 5 5 4 3 2 2 2
2 5 3 1 2 3 2 4 5 4 4 5 2 6 8 4 4 3 2 1 2 2 2 3 3 3 3 3 3 2 3 3 2 3 3 3 3 3 3 3 3 3 3 3
5 5 1 1 0 3 3 3 3 4 0 3 6 7 8 2 3 2 1 1 2 3 3 3 2 2 3 3 3 3 3 2 3 3 3 3 3 3 3 3 3 3 2 2
4 3 2 1 1 1 2 3 3 3 2 4 6 5 5 4 4 3 3 3 4 3 2 2 2 2 2 2 1 2 2 2 2 2 2 2 3 3 3 2 3 3 2 2
2 3 2 1 5 6 3 3 3 3 3 4 4 8 6 5 4 5 6 5 4 4 4 3 2 1 0 0 1 1 1 1 1 1 1 2 2 2 2 2 3 2 2 2
2 3 3 5 3 2 4 5 6 5 4 4 4 10 4 3 3 3 4 4 3 3 3 2 2 1 0 0 0 1 1 2 2 1 1 2 2 2 2 2 3 2 3 3
3 4 0 4 2 1 3 4 5 3 3 4 5 10 3 2 2 2 3 3 3 2 1 1 1 1 1 1 1 1 1 2 1 1 1 1 2 2 2 2 2 2 3 3
3 4 7 9 6 5 5 5 6 6 5 7 11 12 9 6 5 4 4 3 3 2 2 2 2 2 2 1 1 1 1 1 1 1 2 2 2 2 2 2 2 2 3 3
3 5 6 7 5 4 7 8 9 11 11 11 11 11 13 9 6 5 4 3 2 2 2 3 3 2 2 2 2 1 2 1 1 1 2 2 2 1 2 2 2 3 3 3
2 3 2 5 4 5 8 11 12 13 10 11 11 14 11 7 3 3 3 3 3 4 4 3 3 3 3 3 3 2 2 1 1 2 2 2 1 1 2 2 3 3 3 3
4 4 2 5 2 3 10 12 13 9 10 10 14 14 6 4 4 5 4 4 4 5 4 5 5 5 4 4 3 3 2 1 1 2 2 2 2 2 3 3 3 3 3 3
6 5 3 2 1 9 11 3 8 9 9 10 9 7 5 5 3 3 3 4 4 4 4 4 4 4 3 2 2 1 1 1 2 2 2 2 2 2 2 3 3 4 3 3
7 7 4 3 5 11 9 4 5 7 8 8 11 10 6 2 2 3 2 2 3 3 4 4 3 3 2 2 2 1 1 1 2 2 3 3 3 3 3 4 4 4 3 4
3 4 5 5 5 10 8 3 3 2 7 5 8 8 5 2 2 4 1 1 3 3 2 2 1 1 1 2 1 2 2 2 3 4 3 3 3 3 4 4 4 3 3 4
4 5 7 8 9 11 8 3 4 5 7 2 4 5 4 5 5 2 1 2 3 3 2 1 1 1 2 1 1 2 3 4 4 3 2 2 3 3 4 3 3 3 3 3
9 8 8 7 8 13 4 5 7 7 1 1 2 2 3 4 3 2 3 3 3 3 3 2 1 2 1 1 1 3 4 3 2 2 2 3 3 3 2 3 3 3 3 3
9 10 8 11 11 4 4 6 4 1 2 2 2 2 3 3 3 3 3 3 3 3 2 2 2 2 2 1 1 3 4 3 2 2 3 3 3 3 2 2 3 2 2 3
6 4 5 7 9 6 4 4 3 2 3 3 2 2 2 3 3 4 4 4 3 3 2 2 2 2 3 2 2 3 3 2 2 2 3 2 3 3 2 2 2 3 3 3
6 4 5 8 7 5 4 4 5 4 3 3 3 2 3 3 4 5 4 4 4 4 3 2 2 3 4 3 3 3 2 2 2 3 3 3 3 3 3 3 3 4 4 4
6 7 7 9 5 5 6 3 3 4 5 4 4 4 3 3 4 4 4 4 3 4 3 3 3 4 4 4 4 3 2 2 2 3 3 2 2 2 3 3 4 6 6 8
Wind_Direction
108 88 207 217 210 211 190 209 253 262 268 249 251 265 270 264 244 245 246 240 239 245 248 233 211 202 183 174 171 172 170 173 161 162 167 175 198 181 175 184 178 180 173 167
65 240 236 219 201 218 211 234 261 284 304 269 279 278 270 249 234 230 235 235 232 239 244 230 209 186 179 177 172 169 175 175 175 182 183 185 172 181 174 166 165 172 169 170
188 235 214 158 169 213 247 219 235 268 322 317 316 300 282 274 250 250 240 235 233 224 222 219 209 203 183 180 181 178 180 178 182 177 153 128 106 93 115 161 188 197 175 169
224 272 168 170 224 190 248 231 209 247 327 288 12 293 288 278 287 274 263 249 243 242 227 216 202 204 200 197 185 178 179 178 181 171 168 166 173 189 201 191 192 197 185 182
240 226 173 200 225 200 226 207 211 236 216 291 262 235 281 309 285 275 263 251 249 247 222 215 203 201 207 196 182 179 172 176 183 176 175 173 181 197 183 158 163 184 199 196
246 259 205 219 261 203 156 37 47 48 72 279 238 201 275 250 242 268 265 251 245 242 222 211 192 177 197 179 172 174 166 176 186 180 175 177 180 180 171 176 184 193 205 221
305 282 285 100 66 19 71 81 29 358 352 255 250 212 251 253 250 239 251 246 233 218 194 186 194 196 195 189 189 180 167 178 185 183 180 183 183 181 185 190 194 193 208 234
204 267 233 214 178 190 208 150 159 203 242 285 297 237 250 262 286 282 271 250 213 206 202 204 211 206 204 198 193 184 180 184 185 185 185 180 180 183 192 195 199 203 216 228
188 241 284 232 229 158 163 200 178 139 178 282 269 277 293 293 314 323 324 312 237 225 222 227 224 217 211 205 203 193 188 188 190 188 183 179 182 189 197 198 202 212 223 230
166 229 269 272 33 270 178 157 118 137 178 264 284 268 254 261 263 268 259 246 248 239 240 243 231 222 223 209 201 181 178 196 204 193 191 181 186 193 195 195 213 219 224 225
161 173 285 291 201 200 169 170 160 158 179 187 268 269 226 221 226 228 237 239 237 229 228 223 222 220 217 142 143 154 172 191 206 200 202 186 187 198 196 205 221 224 225 222
173 145 237 247 241 234 197 189 163 171 223 210 233 267 260 230 254 238 246 249 244 233 226 210 197 167 110 125 177 196 196 207 219 205 194 196 185 182 201 225 235 230 231 230
152 140 40 331 307 258 236 220 194 168 159 188 209 259 286 316 303 269 248 253 255 241 220 207 194 188 194 219 238 236 227 228 229 200 194 195 196 199 217 235 250 245 238 239
138 174 191 211 225 194 222 228 200 175 198 220 228 250 274 278 278 279 263 249 247 236 212 208 220 229 226 225 226 227 239 235 223 202 201 214 227 234 246 247 249 247 239 233
143 214 228 248 257 235 233 231 209 210 214 218 239 241 257 256 252 255 249 239 237 247 237 227 232 236 235 232 234 234 235 227 215 207 217 235 245 247 261 265 259 257 254 249
156 211 220 269 253 248 263 244 223 226 229 238 256 265 259 257 252 249 247 235 237 240 241 242 240 239 239 239 239 242 246 240 209 217 234 241 241 248 257 264 267 264 264 264
180 160 176 255 296 332 265 233 210 211 212 206 229 244 246 242 236 239 243 238 234 240 241 238 235 233 237 240 234 227 234 230 208 230 250 252 243 246 255 262 264 261 257 257
176 170 184 232 75 239 244 213 197 209 229 219 235 252 243 234 252 267 245 236 254 254 249 244 240 242 245 247 242 233 214 209 214 231 249 254 251 257 266 261 260 264 262 252
189 175 178 183 228 266 283 245 183 200 253 222 226 244 251 250 329 290 268 239 253 261 254 241 233 233 232 232 226 202 221 229 224 240 250 253 248 255 258 256 260 263 265 265
177 176 185 187 210 239 250 228 187 150 269 236 205 228 237 173 236 261 311 318 299 305 295 279 268 221 214 235 201 192 229 239 243 248 254 258 251 250 252 258 266 268 262 264
177 196 209 213 230 255 256 236 140 187 245 222 191 211 195 198 223 250 314 317 317 318 318 325 320 244 245 239 196 218 239 252 259 265 267 267 262 261 262 271 276 276 272 273
183 188 203 194 221 248 223 150 188 224 282 179 181 192 196 219 254 285 296 303 317 326 334 339 329 308 315 305 226 250 260 274 279 261 259 265 269 269 274 272 281 281 274 272
205 198 192 199 221 249 190 208 236 224 235 250 233 233 204 219 249 271 288 298 307 307 315 323 309 309 324 328 278 264 278 292 267 251 258 270 278 277 279 268 274 283 275 270
240 219 209 241 256 257 250 257 274 250 241 254 256 247 206 235 255 271 278 285 293 297 298 311 311 304 305 309 295 280 294 290 252 254 265 269 270 278 277 270 261 261 261 262
230 201 222 249 265 283 269 252 264 269 272 284 288 269 242 244 259 268 275 277 280 291 297 295 285 286 291 304 298 296 297 276 253 257 264 270 269 271 273 270 259 261 260 257
215 204 218 244 244 240 259 271 273 264 267 267 272 282 280 249 257 270 272 276 280 282 286 284 280 279 284 289 290 292 291 250 237 251 258 260 266 270 271 279 289 275 276 280